Location: Dehesa de la Cepeda
(40.6574°N, 4.3013°W)
Time: 13:04:42
(UTC+00:00)

Vanguard 2 Rocket - Pass Details

Date: 04 August 2021
Orbit: 556 x 3323 km, 32.9° (Epoch: 24 September)

Event Time Altitude Azimuth Distance (km) Brightness Sun altitude
Rises 11:39:21 0° 256° (WSW) 2,866 9.4 64.6°
Reaches altitude 10° 11:42:20 10° 231° (SW) 2,160 9.1 64.8°
Maximum altitude 11:45:03 15° 197° (SSW) 2,085 9.3 65.0°
Drops below altitude 10° 11:48:20 10° 164° (SSE) 2,733 9.9 65.3°
Sets 11:53:03 0° 143° (SE) 4,231 10.7 65.6°
